FW9607 Weather Reports


Display with metric or nautical units.
time (UTC)temp
F
wind
direction
speed
MPH
gust
MPH
rain 1hr
in
rain 24hr
in
rain mn
in
humidity
%
barometer
mb
20260903162856 95 186 4.0 12.0 0.00 0.00 0.00 56 1010.9
20260903162355 94 141 6.0 12.0 0.00 0.00 0.00 57 1010.9
20260903161858 93 276 6.0 12.0 0.00 0.00 0.00 58 1011.1
20260903161356 94 180 5.0 12.0 0.00 0.00 0.00 58 1011.1
20260903160856 94 185 5.0 13.0 0.00 0.00 0.00 57 1011.0
20260903160356 93 183 5.0 13.0 0.00 0.00 0.00 59 1011.0
20260903155856 93 178 4.0 11.0 0.00 0.00 0.00 58 1011.0
20260903155356 92 182 4.0 11.0 0.00 0.00 0.00 60 1011.0
20260903154856 92 173 5.0 12.0 0.00 0.00 0.00 61 1011.1
20260903154357 91 129 6.0 13.0 0.00 0.00 0.00 63 1011.1
20260903153857 91 163 7.0 16.0 0.00 0.00 0.00 63 1011.1
20260903153354 90 167 6.0 16.0 0.00 0.00 0.00 64 1011.2
20260903152354 90 150 6.0 16.0 0.00 0.00 0.00 65 1011.2
20260903151854 90 180 6.0 16.0 0.00 0.00 0.00 67 1011.3
20260903151354 89 190 7.0 14.0 0.00 0.00 0.00 66 1011.3
20260903150851 89 194 6.0 14.0 0.00 0.00 0.00 69 1011.3
20260903150352 90 192 4.0 10.0 0.00 0.00 0.00 67 1011.3
20260903145851 89 172 4.0 11.0 0.00 0.00 0.00 69 1011.4
20260903145351 89 153 4.0 11.0 0.00 0.00 0.00 69 1011.4
20260903144852 89 125 5.0 12.0 0.00 0.00 0.00 71 1011.5
20260903144351 88 121 6.0 15.0 0.00 0.00 0.00 73 1011.5
20260903143852 88 42 6.0 15.0 0.00 0.00 0.00 73 1011.5
20260903143351 87 139 5.0 12.0 0.00 0.00 0.00 75 1011.6
20260903142851 87 144 5.0 13.0 0.00 0.00 0.00 75 1011.6
20260903142349 87 134 6.0 13.0 0.00 0.00 0.00 78 1011.6
20260903141346 87 174 6.0 15.0 0.00 0.00 0.00 79 1011.5
20260903140346 86 184 3.0 9.0 0.00 0.00 0.00 80 1011.6
20260903135845 86 153 4.0 9.0 0.00 0.00 0.00 81 1011.6
20260903135346 86 181 3.0 9.0 0.00 0.00 0.00 82 1011.6
20260903134846 86 175 3.0 8.0 0.00 0.00 0.00 82 1011.7
20260903133843 85 172 3.0 6.0 0.00 0.00 0.00 83 1011.8
20260903132843 85 129 3.0 5.0 0.00 0.00 0.00 85 1011.7
20260903132347 84 175 3.0 5.0 0.00 0.00 0.00 85 1011.7
20260903131842 84 176 3.0 6.0 0.00 0.00 0.00 86 1011.6
20260903130843 83 167 3.0 4.0 0.00 0.00 0.00 87 1011.5
20260903130344 83 162 3.0 4.0 0.00 0.00 0.00 88 1011.5
20260903125842 82 165 3.0 4.0 0.00 0.00 0.00 89 1011.5
20260903125331 82 143 3.0 4.0 0.00 0.00 0.00 89 1011.5
20260903124829 82 150 3.0 4.0 0.00 0.00 0.00 90 1011.4
20260903124331 81 150 3.0 4.0 0.00 0.00 0.00 90 1011.3
20260903123829 81 158 3.0 4.0 0.00 0.00 0.00 90 1011.3
20260903123331 81 155 2.0 3.0 0.00 0.00 0.00 90 1011.3
20260903122829 81 165 2.0 4.0 0.00 0.00 0.00 90 1011.3
20260903121829 81 175 2.0 4.0 0.00 0.00 0.00 90 1011.2
20260903120829 81 158 3.0 4.0 0.00 0.00 0.00 90 1011.2
20260903120333 81 172 2.0 4.0 0.00 0.00 0.00 90 1011.2
20260903115829 81 173 3.0 4.0 0.00 0.00 0.00 90 1011.2
20260903114305 81 172 3.0 4.0 0.00 0.00 0.00 90 1011.1
20260903113801 81 135 3.0 4.0 0.00 0.00 0.00 90 1011.1
20260903113305 81 177 3.0 4.0 0.00 0.00 0.00 90 1011.1
20260903112801 81 166 2.0 3.0 0.00 0.00 0.00 90 1011.1
20260903111802 81 157 2.0 3.0 0.00 0.00 0.00 90 1011.3
20260903111305 82 177 2.0 3.0 0.00 0.00 0.00 90 1011.4
20260903110802 82 172 2.0 3.0 0.00 0.00 0.00 90 1011.3
20260903110305 82 148 2.0 3.0 0.00 0.00 0.00 89 1011.3
20260903105306 82 167 2.0 3.0 0.00 0.00 0.00 89 1011.5
20260903104800 82 164 2.0 3.0 0.00 0.00 0.00 89 1011.5
20260903103745 82 190 2.0 3.0 0.00 0.00 0.00 89 1011.4
20260903103231 82 171 2.0 3.0 0.00 0.00 0.00 89 1011.5
20260903102731 82 154 2.0 3.0 0.00 0.00 0.00 89 1011.5
20260903102230 82 156 2.0 3.0 0.00 0.00 0.00 89 1011.5
20260903101731 82 163 2.0 3.0 0.00 0.00 0.00 89 1011.5
20260903101231 82 152 2.0 3.0 0.00 0.00 0.00 89 1011.5
20260903100731 82 163 2.0 3.0 0.00 0.00 0.00 89 1011.4
20260903100231 82 158 2.0 3.0 0.00 0.00 0.00 89 1011.4
20260903095731 82 152 2.0 3.0 0.00 0.00 0.00 88 1011.4
20260903095232 82 158 2.0 3.0 0.00 0.00 0.00 88 1011.4
20260903094731 82 151 2.0 3.0 0.00 0.00 0.00 88 1011.4
20260903094232 83 118 2.0 2.0 0.00 0.00 0.00 88 1011.5
20260903093732 83 202 2.0 2.0 0.00 0.00 0.00 88 1011.5
20260903093222 83 151 2.0 3.0 0.00 0.00 0.00 88 1011.6
20260903092716 83 149 1.0 3.0 0.00 0.00 0.00 88 1011.5
20260903092202 83 113 1.0 2.0 0.00 0.00 0.00 88 1011.5
20260903091707 83 113 1.0 2.0 0.00 0.00 0.00 88 1011.5
20260903091147 83 143 1.0 2.0 0.00 0.00 0.00 88 1011.5
20260903090646 83 140 1.0 3.0 0.00 0.00 0.00 87 1011.5
20260903085652 83 170 2.0 4.0 0.00 0.00 0.00 87 1011.4
20260903085149 83 154 2.0 4.0 0.00 0.00 0.00 87 1011.4
20260903084652 83 191 2.0 3.0 0.00 0.00 0.00 87 1011.5
20260903084149 83 184 2.0 4.0 0.00 0.00 0.00 87 1011.5
20260903083648 83 177 3.0 6.0 0.00 0.00 0.00 87 1011.4
20260903083147 83 174 4.0 6.0 0.00 0.00 0.00 87 1011.3
20260903082650 83 185 4.0 9.0 0.00 0.00 0.00 87 1011.4
20260903082148 83 180 5.0 9.0 0.00 0.00 0.00 87 1011.4
20260903081650 83 185 5.0 8.0 0.00 0.00 0.00 87 1011.4
20260903081147 84 181 4.0 8.0 0.00 0.00 0.00 86 1011.4
20260903080646 84 164 4.0 8.0 0.00 0.00 0.00 86 1011.4
20260903080146 84 192 4.0 8.0 0.00 0.00 0.00 86 1011.5
20260903075648 84 200 5.0 9.0 0.00 0.00 0.00 86 1011.4
20260903075148 84 177 5.0 9.0 0.00 0.00 0.00 86 1011.4
20260903074146 84 147 5.0 9.0 0.00 0.00 0.00 86 1011.4
20260903073648 84 167 5.0 9.0 0.00 0.00 0.00 86 1011.4
20260903073146 84 178 4.0 7.0 0.00 0.00 0.00 85 1011.4
20260903072647 84 188 4.0 9.0 0.00 0.00 0.00 85 1011.4
20260903071645 85 186 5.0 10.0 0.00 0.00 0.00 85 1011.4
20260903071142 85 178 4.0 9.0 0.00 0.00 0.00 84 1011.4
20260903070645 85 184 5.0 8.0 0.00 0.00 0.00 84 1011.4
20260903070142 85 194 5.0 12.0 0.00 0.00 0.00 84 1011.4
20260903065639 85 174 5.0 12.0 0.00 0.00 0.00 84 1011.3
20260903065136 85 165 4.0 9.0 0.00 0.00 0.00 84 1011.3
20260903064636 85 184 4.0 9.0 0.00 0.00 0.00 84 1011.4
20260903064139 85 164 4.0 9.0 0.00 0.00 0.00 84 1011.5
20260903063637 85 159 3.0 6.0 0.00 0.00 0.00 84 1011.6
20260903063134 85 179 3.0 4.0 0.00 0.00 0.00 84 1011.7
20260903062635 85 169 3.0 5.0 0.00 0.00 0.00 83 1011.7
20260903062134 85 173 3.0 5.0 0.00 0.00 0.00 83 1011.8
20260903061634 85 184 2.0 6.0 0.00 0.00 0.00 83 1011.9
20260903060626 85 157 3.0 6.0 0.00 0.00 0.00 83 1011.8
20260903060126 85 156 4.0 10.0 0.00 0.00 0.00 83 1011.9
20260903055627 85 170 4.0 10.0 0.00 0.00 0.00 83 1011.8
20260903055126 85 185 4.0 10.0 0.00 0.00 0.00 83 1011.8
20260903054626 85 163 4.0 9.0 0.00 0.00 0.00 82 1011.8
20260903054127 85 151 4.0 10.0 0.00 0.00 0.00 82 1011.7
20260903053625 85 171 5.0 10.0 0.00 0.00 0.00 82 1011.7
20260903053125 85 168 5.0 10.0 0.00 0.00 0.00 82 1011.7
20260903052626 85 180 4.0 9.0 0.00 0.00 0.00 82 1011.7
20260903052120 85 129 4.0 8.0 0.00 0.00 0.00 82 1011.7
20260903051120 85 155 3.0 7.0 0.00 0.00 0.00 82 1011.7
20260903050620 85 168 3.0 7.0 0.00 0.00 0.00 82 1011.7
20260903050120 86 152 3.0 7.0 0.00 0.00 0.00 82 1011.6
20260903045620 86 152 3.0 5.0 0.00 0.00 0.00 82 1011.5
20260903045120 86 150 3.0 9.0 0.00 0.00 0.00 82 1011.6
20260903044620 86 178 3.0 9.0 0.00 0.00 0.00 81 1011.7
20260903044124 86 127 3.0 5.0 0.00 0.00 0.00 81 1011.7
20260903043620 86 145 3.0 9.0 0.00 0.00 0.00 81 1011.7
20260903043108 86 156 4.0 9.0 0.00 0.00 0.00 81 1011.7
20260903042608 86 175 3.0 6.0 0.00 0.00 0.00 81 1011.7
20260903041608 86 90 3.0 7.0 0.00 0.00 0.00 81 1011.8
20260903041110 86 132 3.0 7.0 0.00 0.00 0.00 81 1011.8
20260903040605 86 104 3.0 6.0 0.00 0.00 0.00 81 1011.8
20260903040118 86 144 3.0 7.0 0.00 0.00 0.00 81 1011.7
20260903035557 86 160 3.0 7.0 0.00 0.00 0.00 81 1011.7
20260903035108 86 162 3.0 7.0 0.00 0.00 0.00 81 1011.7
20260903034551 86 201 3.0 5.0 0.00 0.00 0.00 81 1011.6
20260903033552 86 134 3.0 7.0 0.00 0.00 0.00 81 1011.5
20260903033052 86 160 3.0 7.0 0.00 0.00 0.00 81 1011.5
20260903032550 86 208 3.0 7.0 0.00 0.00 0.00 81 1011.5
20260903032051 86 180 3.0 7.0 0.00 0.00 0.00 81 1011.4
20260903031550 86 161 3.0 7.0 0.00 0.00 0.00 81 1011.4
20260903031050 86 129 3.0 8.0 0.00 0.00 0.00 81 1011.3
20260903030549 86 157 3.0 8.0 0.00 0.00 0.00 81 1011.2
20260903030049 86 83 3.0 10.0 0.00 0.00 0.00 81 1011.1
20260903025546 86 163 3.0 10.0 0.00 0.00 0.00 81 1011.0
20260903025046 86 75 3.0 8.0 0.00 0.00 0.00 80 1010.9
20260903024546 86 172 3.0 8.0 0.00 0.00 0.00 80 1010.7
20260903024046 87 151 3.0 9.0 0.00 0.00 0.00 80 1010.8
20260903023546 87 207 3.0 9.0 0.00 0.00 0.00 80 1010.6
20260903023045 87 130 4.0 9.0 0.00 0.00 0.00 80 1010.5
20260903022546 87 167 3.0 8.0 0.00 0.00 0.00 80 1010.5
20260903022046 87 180 4.0 12.0 0.00 0.00 0.00 80 1010.4
20260903021046 87 109 4.0 9.0 0.00 0.00 0.00 79 1010.4
20260903020546 87 139 3.0 8.0 0.00 0.00 0.00 79 1010.3
20260903020046 87 132 4.0 11.0 0.00 0.00 0.00 78 1010.2
20260903015546 87 198 4.0 11.0 0.00 0.00 0.00 78 1010.1
20260903015044 87 96 4.0 11.0 0.00 0.00 0.00 78 1010.0
20260903014540 87 129 3.0 9.0 0.00 0.00 0.00 78 1010.0
20260903014041 87 158 4.0 9.0 0.00 0.00 0.00 78 1009.9
20260903013541 87 104 4.0 9.0 0.00 0.00 0.00 78 1010.0
20260903013040 88 112 3.0 8.0 0.00 0.00 0.00 78 1009.9
20260903011541 88 122 4.0 10.0 0.00 0.00 0.00 77 1009.7
20260903011041 88 126 4.0 10.0 0.00 0.00 0.00 77 1009.7
20260903010541 88 141 4.0 10.0 0.00 0.00 0.00 77 1009.6
20260903010041 88 98 4.0 10.0 0.00 0.00 0.00 77 1009.6
20260903005542 89 124 4.0 9.0 0.00 0.00 0.00 76 1009.6
20260903005041 89 92 4.0 9.0 0.00 0.00 0.00 76 1009.6
20260903004541 89 168 5.0 13.0 0.00 0.00 0.00 75 1009.5
20260903003541 90 117 3.0 7.0 0.00 0.00 0.00 73 1009.6
20260903003039 90 160 4.0 13.0 0.00 0.00 0.00 73 1009.6
20260903002537 90 125 5.0 13.0 0.00 0.00 0.00 73 1009.5
20260903002038 90 109 5.0 13.0 0.00 0.00 0.00 73 1009.4
20260903001538 90 133 5.0 10.0 0.00 0.00 0.00 72 1009.6
20260903001037 91 260 5.0 11.0 0.00 0.00 0.00 71 1009.6
20260903000035 91 94 5.0 11.0 0.00 0.00 0.00 70 1009.5
20260902235534 91 116 5.0 11.0 0.00 0.00 0.00 69 1009.5
20260902235034 91 73 5.0 10.0 0.00 0.00 0.00 69 1009.5
20260902233534 92 94 5.0 12.0 0.00 0.00 0.00 67 1009.5
20260902233033 92 114 5.0 12.0 0.00 0.00 0.00 67 1009.5
20260902232034 92 115 6.0 13.0 0.00 0.00 0.00 66 1009.5
20260902230531 93 100 6.0 13.0 0.00 0.00 0.00 65 1009.5
20260902230031 93 111 6.0 15.0 0.00 0.00 0.00 66 1009.4
20260902225531 93 99 6.0 15.0 0.00 0.00 0.00 65 1009.4
20260902225031 93 99 6.0 11.0 0.00 0.00 0.00 65 1009.3
20260902224530 93 108 6.0 12.0 0.00 0.00 0.00 64 1009.4
20260902224031 94 117 6.0 12.0 0.00 0.00 0.00 63 1009.3
20260902223532 94 134 5.0 12.0 0.00 0.00 0.00 62 1009.3
20260902223032 95 79 5.0 13.0 0.00 0.00 0.00 61 1009.3
20260902222531 95 125 6.0 13.0 0.00 0.00 0.00 60 1009.3
20260902222031 95 80 6.0 12.0 0.00 0.00 0.00 60 1009.2
20260902221531 96 105 6.0 12.0 0.00 0.00 0.00 59 1009.2
20260902221031 96 93 6.0 16.0 0.00 0.00 0.00 58 1009.0
20260902220531 96 123 6.0 16.0 0.00 0.00 0.00 59 1009.1
20260902220029 96 162 6.0 12.0 0.00 0.00 0.00 58 1009.1
20260902215529 97 144 5.0 12.0 0.00 0.00 0.00 58 1009.1
20260902215029 97 180 5.0 11.0 0.00 0.00 0.00 56 1009.1
20260902214529 97 137 5.0 10.0 0.00 0.00 0.00 57 1009.1
20260902214029 98 104 5.0 11.0 0.00 0.00 0.00 57 1009.1
20260902213530 98 140 5.0 11.0 0.00 0.00 0.00 57 1009.2
20260902213029 98 111 5.0 11.0 0.00 0.00 0.00 55 1009.1
20260902212029 98 99 5.0 11.0 0.00 0.00 0.00 56 1009.2
20260902211529 99 96 5.0 11.0 0.00 0.00 0.00 55 1009.3
20260902211029 99 8 5.0 13.0 0.00 0.00 0.00 55 1009.3
20260902210529 99 65 5.0 13.0 0.00 0.00 0.00 56 1009.3
20260902210029 100 122 5.0 11.0 0.00 0.00 0.00 53 1009.4
20260902205529 100 85 4.0 11.0 0.00 0.00 0.00 51 1009.4
20260902205030 101 112 4.0 9.0 0.00 0.00 0.00 49 1009.4
20260902204530 101 113 4.0 15.0 0.00 0.00 0.00 49 1009.4
20260902204025 101 105 5.0 15.0 0.00 0.00 0.00 49 1009.4
20260902203525 101 142 4.0 10.0 0.00 0.00 0.00 48 1009.5
20260902203025 102 156 4.0 10.0 0.00 0.00 0.00 47 1009.6
20260902202525 102 162 4.0 9.0 0.00 0.00 0.00 44 1009.6
20260902202026 102 106 4.0 9.0 0.00 0.00 0.00 43 1009.6
20260902201525 103 107 3.0 10.0 0.00 0.00 0.00 42 1009.6
20260902201025 103 77 3.0 10.0 0.00 0.00 0.00 41 1009.7
20260902200525 103 139 3.0 9.0 0.00 0.00 0.00 39 1009.6
20260902200026 103 105 3.0 6.0 0.00 0.00 0.00 39 1009.8
20260902195526 103 177 3.0 6.0 0.00 0.00 0.00 41 1009.9
20260902195025 103 128 3.0 8.0 0.00 0.00 0.00 38 1010.0
20260902194526 102 221 2.0 8.0 0.00 0.00 0.00 39 1010.0
20260902194027 102 106 2.0 7.0 0.00 0.00 0.00 39 1010.1
20260902193525 102 215 3.0 8.0 0.00 0.00 0.00 40 1010.2
20260902193024 102 116 3.0 8.0 0.00 0.00 0.00 40 1010.3
20260902192522 102 130 2.0 8.0 0.00 0.00 0.00 40 1010.3
20260902192022 102 50 3.0 8.0 0.00 0.00 0.00 39 1010.4
20260902191518 101 102 3.0 7.0 0.00 0.00 0.00 41 1010.5
20260902191019 101 65 3.0 7.0 0.00 0.00 0.00 40 1010.7
20260902190518 101 73 2.0 5.0 0.00 0.00 0.00 42 1010.8
20260902190019 102 134 2.0 7.0 0.00 0.00 0.00 40 1010.9
20260902185520 101 193 3.0 7.0 0.00 0.00 0.00 40 1010.9
20260902185020 101 181 3.0 10.0 0.00 0.00 0.00 41 1010.9
20260902184519 101 190 4.0 10.0 0.00 0.00 0.00 41 1011.1
20260902183520 101 185 4.0 12.0 0.00 0.00 0.00 41 1011.3
20260902183019 101 176 3.0 12.0 0.00 0.00 0.00 40 1011.3
20260902181516 100 178 3.0 9.0 0.00 0.00 0.00 44 1011.6
20260902181016 99 111 3.0 11.0 0.00 0.00 0.00 46 1011.7
20260902180514 99 187 4.0 11.0 0.00 0.00 0.00 45 1011.8
20260902175514 98 189 3.0 8.0 0.00 0.00 0.00 48 1012.0
20260902175014 98 136 3.0 8.0 0.00 0.00 0.00 48 1012.2
20260902174513 98 73 4.0 9.0 0.00 0.00 0.00 49 1012.2
20260902173511 98 103 3.0 10.0 0.00 0.00 0.00 47 1012.4
20260902173012 98 181 3.0 11.0 0.00 0.00 0.00 49 1012.5
20260902172011 97 120 4.0 9.0 0.00 0.00 0.00 51 1012.5
20260902171511 97 134 3.0 10.0 0.00 0.00 0.00 52 1012.7
20260902171012 97 196 3.0 10.0 0.00 0.00 0.00 51 1012.7
20260902170511 96 189 4.0 11.0 0.00 0.00 0.00 50 1012.7
20260902165513 95 322 5.0 12.0 0.00 0.00 0.00 55 1012.9
20260902165011 95 181 5.0 12.0 0.00 0.00 0.00 55 1012.9
20260902164508 95 172 5.0 11.0 0.00 0.00 0.00 55 1013.0
20260902164008 94 178 5.0 13.0 0.00 0.00 0.00 56 1013.1